Location: Unspecified
(52.1971°N, 0.0000°E)
Time: 07:45:06
(UTC+00:00)

YUBILEINY - Pass Details

Date: 17 December 2019
Orbit: 1478 x 1509 km, 82.5° (Epoch: 21 January)

Event Time Altitude Azimuth Distance (km) Brightness Sun altitude
Rises 05:39:10 0° 347° (NNW) 4,613 ? -20.7°
Reaches altitude 10° 05:42:41 10° 359° (N) 3,630 ? -20.2°
Maximum altitude 05:49:56 28° 56° (NE) 2,489 ? -19.1°
Drops below altitude 10° 05:57:10 10° 113° (ESE) 3,624 ? -18.1°
Sets 06:00:38 0° 124° (SE) 4,604 ? -17.5°
